Date String (YYYY-MM-DD hh:mm:ss) UTC,Instrument flags,Ambient pressure (hPa),Sample flow (lpm),Bypass flow (lpm),Sample temperature (°C),Ambient temperature (°C),ASC tube jacket temperature (°C),LED temperature (°C),Box temperature (°C),Sample RH (%),Span deviation,Mass concentration (μg/m³),Mass concentration (μg/m³),Mass concentration (μg/m³)
DateTimeUTC,F1_M11,P_M11,Q1_M11,Q2_M11,T1_M11,T2_M11,T3_M11,T4_M11,T5_M11,U1_M11,ZSPAN_M11,X0_M11,X2_M11,X1_M11
2021-08-25 20:00:00,,0832.1,5.00,0.00,29.8,27.7,00.0,38.6,31.3,34.2,0002.7,0030.84,0015.86,0014.13
2021-08-25 20:01:00,,0832.1,5.01,0.00,29.9,28.0,00.0,38.6,31.3,34.4,0002.7,0031.69,0015.91,0014.18
2021-08-25 20:02:00,,0832.1,4.99,0.00,29.9,28.2,00.0,38.6,31.4,34.0,0002.8,0031.38,0015.93,0014.21
2021-08-25 20:03:00,,0832.1,5.00,0.00,30.0,28.5,00.0,38.6,31.5,33.8,0002.8,0031.23,0015.92,0014.23
2021-08-25 20:04:00,,0832.2,4.99,0.00,30.0,28.6,00.0,38.7,31.6,33.9,0002.6,0031.01,0015.94,0014.25
2021-08-25 20:05:00,,0832.2,4.99,0.00,30.0,28.0,00.0,38.7,31.4,33.8,0002.6,0030.46,0015.94,0014.25
2021-08-25 20:06:00,,0832.1,5.01,0.00,29.9,26.4,00.0,38.7,30.9,33.9,0002.7,0031.45,0015.97,0014.29
2021-08-25 20:07:00,,0832.1,4.99,0.00,29.8,25.8,00.0,38.7,30.8,34.1,0002.4,0030.45,0015.97,0014.29
2021-08-25 20:08:00,,0832.1,5.01,0.00,29.7,26.1,00.0,38.7,30.8,34.3,0002.3,0030.15,0016.03,0014.29
2021-08-25 20:09:00,,0832.1,5.00,0.00,29.6,26.5,00.0,38.6,30.9,34.1,0002.3,0030.17,0016.08,0014.29
2021-08-25 20:10:00,,0832.1,4.99,0.00,29.6,27.0,00.0,38.6,31.0,34.1,0002.1,0030.10,0016.13,0014.29
2021-08-25 20:11:00,,0832.1,5.00,0.00,29.6,27.4,00.0,38.6,31.1,34.6,0002.0,0030.31,0016.13,0014.26
2021-08-25 20:12:00,,0832.1,5.00,0.00,29.7,27.8,00.0,38.6,31.2,34.4,0001.9,0029.74,0016.10,0014.23
2021-08-25 20:13:00,,0832.1,4.99,0.00,29.7,28.1,00.0,38.6,31.3,34.3,0001.7,0029.96,0016.12,0014.23
2021-08-25 20:14:00,,0832.1,4.98,0.00,29.8,28.4,00.0,38.7,31.4,34.6,0001.5,0030.67,0016.10,0014.22
2021-08-25 20:15:00,,0832.1,5.01,0.00,29.8,28.6,00.0,38.7,31.5,34.1,0001.6,0031.34,0016.11,0014.20
2021-08-25 20:16:00,,0832.1,5.01,0.00,29.9,28.7,00.0,38.7,31.5,33.8,0001.5,0031.75,0016.12,0014.20
2021-08-25 20:17:00,,0832.0,4.98,0.00,29.9,27.7,00.0,38.7,31.3,34.1,0001.3,0032.02,0016.05,0014.13
2021-08-25 20:18:00,,0832.0,5.03,0.00,29.7,26.3,00.0,38.7,30.9,34.7,0001.3,0031.61,0016.00,0014.09
2021-08-25 20:19:00,,0831.9,4.99,0.00,29.7,26.0,00.0,38.7,30.8,34.3,0001.2,0031.65,0015.95,0014.08
2021-08-25 20:20:00,,0832.0,5.01,0.00,29.6,26.3,00.0,38.6,30.8,34.5,0001.3,0031.74,0015.93,0014.07
2021-08-25 20:21:00,,0831.9,4.99,0.00,29.6,26.8,00.0,38.6,30.9,34.8,0001.6,0032.15,0015.87,0014.06
2021-08-25 20:22:00,,0831.9,5.00,0.00,29.7,27.2,00.0,38.6,31.1,34.9,0001.8,0032.75,0015.82,0014.05
2021-08-25 20:23:00,,0832.0,5.01,0.00,29.8,27.6,00.0,38.6,31.3,34.5,0001.9,0032.61,0015.81,0014.05
2021-08-25 20:24:00,,0831.9,4.99,0.00,30.0,28.0,00.0,38.6,31.4,35.0,0002.1,0033.13,0015.74,0013.99
2021-08-25 20:25:00,,0832.0,5.00,0.00,30.2,28.3,00.0,38.6,31.6,34.3,0002.4,0032.85,0015.68,0013.93
2021-08-25 20:26:00,,0832.0,4.99,0.00,30.3,28.5,00.0,38.7,31.7,33.6,0002.6,0032.24,0015.58,0013.88
2021-08-25 20:27:00,,0831.9,5.00,0.00,30.4,28.7,00.0,38.7,31.7,33.1,0002.6,0033.11,0015.48,0013.82
2021-08-25 20:28:00,,0831.9,5.01,0.00,30.4,28.0,00.0,38.8,31.5,33.0,0002.5,0032.30,0015.51,0013.80
2021-08-25 20:29:00,,0831.9,4.99,0.00,30.3,26.4,00.0,38.8,31.0,33.0,0002.5,0032.07,0015.52,0013.80
2021-08-25 20:30:00,,0831.8,5.00,0.00,30.2,26.0,00.0,38.8,30.9,33.1,0002.6,0031.47,0015.43,0013.75
2021-08-25 20:31:00,,0831.8,4.99,0.00,30.1,26.3,00.0,38.8,31.0,33.1,0002.6,0031.76,0015.41,0013.72
2021-08-25 20:32:00,,0831.7,5.00,0.00,30.1,26.7,00.0,38.8,31.1,33.3,0002.4,0031.65,0015.39,0013.71
2021-08-25 20:33:00,,0831.8,5.01,0.00,30.1,27.2,00.0,38.8,31.2,33.5,0002.2,0031.22,0015.37,0013.69
2021-08-25 20:34:00,,0831.8,4.99,0.00,30.1,27.6,00.0,38.8,31.3,33.3,0002.1,0031.25,0015.35,0013.68
2021-08-25 20:35:00,,0831.7,4.99,0.00,30.1,27.9,00.0,38.9,31.4,33.3,0001.9,0030.56,0015.38,0013.71
2021-08-25 20:36:00,,0831.7,4.99,0.00,30.1,28.2,00.0,38.9,31.5,33.7,0001.8,0031.09,0015.42,0013.76
2021-08-25 20:37:00,,0831.7,4.99,0.00,30.1,28.5,00.0,38.9,31.6,33.1,0001.7,0031.02,0015.49,0013.80
2021-08-25 20:38:00,,0831.7,5.01,0.00,30.2,28.0,00.0,38.9,31.4,33.3,0001.6,0029.16,0015.49,0013.84
2021-08-25 20:39:00,,0831.7,5.00,0.00,30.0,26.5,00.0,38.9,31.0,33.1,0001.9,0029.62,0015.47,0013.86
2021-08-25 20:40:00,,0831.7,5.00,0.00,29.9,26.0,00.0,38.9,30.8,33.5,0002.1,0029.54,0015.51,0013.90
2021-08-25 20:41:00,,0831.7,5.00,0.00,29.8,26.1,00.0,38.8,30.8,33.7,0002.0,0029.35,0015.60,0013.95
2021-08-25 20:42:00,,0831.7,4.99,0.00,29.7,26.6,00.0,38.8,30.9,33.9,0002.1,0029.40,0015.61,0013.96
2021-08-25 20:43:00,,0831.7,5.01,0.00,29.7,27.0,00.0,38.8,31.0,34.1,0002.2,0029.62,0015.56,0013.96
2021-08-25 20:44:00,,0831.7,4.99,0.00,29.7,27.5,00.0,38.7,31.2,34.1,0002.1,0028.33,0015.58,0013.95
2021-08-25 20:45:00,,0831.7,4.99,0.00,29.8,27.8,00.0,38.7,31.3,34.2,0002.2,0028.30,0015.55,0013.95
2021-08-25 20:46:00,,0831.6,5.01,0.00,29.8,28.1,00.0,38.7,31.4,34.3,0002.3,0029.45,0015.60,0013.95
2021-08-25 20:47:00,,0831.6,5.01,0.00,29.8,28.4,00.0,38.7,31.4,33.5,0002.2,0029.12,0015.64,0013.95
2021-08-25 20:48:00,,0831.6,4.99,0.00,29.9,28.6,00.0,38.8,31.5,33.8,0002.2,0028.67,0015.62,0013.94
2021-08-25 20:49:00,,0831.6,5.01,0.00,29.9,27.6,00.0,38.8,31.3,33.3,0002.2,0029.03,0015.60,0013.92
2021-08-25 20:50:00,,0831.6,4.99,0.00,29.7,26.3,00.0,38.7,30.9,33.9,0002.3,0028.38,0015.63,0013.94
2021-08-25 20:51:00,,0831.6,5.01,0.00,29.6,26.0,00.0,38.7,30.8,34.2,0002.1,0029.21,0015.65,0013.92
2021-08-25 20:52:00,,0831.5,5.00,0.00,29.6,26.3,00.0,38.7,30.9,34.1,0002.2,0029.31,0015.60,0013.88
2021-08-25 20:53:00,,0831.5,5.01,0.00,29.5,26.8,00.0,38.7,30.9,34.1,0002.0,0028.59,0015.56,0013.86
2021-08-25 20:54:00,,0831.5,4.98,0.00,29.5,27.2,00.0,38.6,31.0,34.0,0001.9,0029.03,0015.63,0013.88
2021-08-25 20:55:00,,0831.5,5.00,0.00,29.6,27.6,00.0,38.6,31.2,34.5,0002.0,0029.39,0015.63,0013.87
2021-08-25 20:56:00,,0831.5,4.99,0.00,29.6,27.9,00.0,38.6,31.3,34.0,0001.9,0028.79,0015.60,0013.84
2021-08-25 20:57:00,,0831.5,5.02,0.00,29.6,28.2,00.0,38.6,31.4,34.0,0001.9,0027.91,0015.51,0013.79
2021-08-25 20:58:00,,0831.5,5.00,0.00,29.7,28.4,00.0,38.6,31.4,34.3,0001.8,0027.23,0015.49,0013.76
2021-08-25 20:59:00,,0831.5,4.99,0.00,29.7,27.8,00.0,38.6,31.2,34.3,0001.7,0028.07,0015.44,0013.71
